| time (UTC) | temp F | wind direction | speed knots | gust knots | rain 1hr in | rain 24hr in | rain mn in | humidity % | barometer mb |
| 20260905041504 | 78 | 115 | 0.9 | 0.0 | 0.00 | 0.00 | 0.00 | 72 | 1010.0 |
| 20260905040006 | 78 | 126 | 1.7 | 0.0 | 0.00 | 0.00 | 0.00 | 72 | 1009.9 |
| 20260905034503 | 78 | 95 | 1.7 | 0.0 | 0.00 | 0.00 | 0.00 | 72 | 1010.0 |
| 20260905033006 | 78 | 140 | 1.7 | 0.0 | 0.00 | 0.00 | 0.00 | 72 | 1009.9 |
| 20260905031616 | 78 | 78 | 1.7 | 0.0 | 0.00 | 0.00 | 0.00 | 71 | 1009.7 |
| 20260905030011 | 79 | 78 | 2.6 | 0.0 | 0.00 | 0.00 | 0.00 | 69 | 1009.9 |
| 20260905023105 | 79 | 62 | 0.9 | 0.0 | 0.00 | 0.00 | 0.00 | 68 | 1009.3 |
| 20260905020006 | 79 | 65 | 0.9 | 0.0 | 0.00 | 0.00 | 0.00 | 67 | 1009.2 |
| 20260905014506 | 79 | 82 | 0.9 | 0.0 | 0.00 | 0.00 | 0.00 | 66 | 1009.1 |
| 20260905013009 | 78 | 77 | 0.9 | 0.0 | 0.00 | 0.00 | 0.00 | 67 | 1008.9 |
| 20260905011601 | 78 | 92 | 0.0 | 0.0 | 0.00 | 0.00 | 0.00 | 67 | 1009.0 |
| 20260905010004 | 79 | 92 | 0.0 | 0.0 | 0.00 | 0.00 | 0.00 | 67 | 1009.0 |
| 20260905004700 | 80 | 92 | 0.0 | 0.0 | 0.00 | 0.00 | 0.00 | 65 | 1009.1 |
| 20260905003003 | 81 | 92 | 0.0 | 0.0 | 0.00 | 0.00 | 0.00 | 64 | 1009.0 |
| 20260905001609 | 82 | 92 | 0.0 | 0.0 | 0.00 | 0.00 | 0.00 | 64 | 1008.8 |
| 20260905000006 | 82 | 140 | 0.0 | 0.0 | 0.00 | 0.00 | 0.00 | 64 | 1008.7 |
| 20260904233003 | 84 | 140 | 2.6 | 0.0 | 0.00 | 0.00 | 0.00 | 61 | 1008.3 |
| 20260904231603 | 85 | 111 | 2.6 | 0.0 | 0.00 | 0.00 | 0.00 | 62 | 1008.2 |
| 20260904230006 | 86 | 100 | 2.6 | 0.0 | 0.00 | 0.00 | 0.00 | 65 | 1007.9 |
| 20260904224605 | 84 | 123 | 2.6 | 0.0 | 0.00 | 0.00 | 0.00 | 68 | 1008.0 |
| 20260904223003 | 85 | 107 | 2.6 | 0.0 | 0.00 | 0.00 | 0.00 | 64 | 1008.4 |
| 20260904221505 | 86 | 142 | 2.6 | 0.0 | 0.00 | 0.00 | 0.00 | 66 | 1008.4 |
| 20260904220007 | 83 | 66 | 1.7 | 0.0 | 0.00 | 0.00 | 0.00 | 68 | 1008.5 |
| 20260904214613 | 82 | 98 | 0.9 | 0.0 | 0.00 | 0.00 | 0.00 | 71 | 1008.9 |
| 20260904211604 | 84 | 115 | 1.7 | 0.0 | 0.00 | 0.00 | 0.00 | 68 | 1009.0 |
| 20260904204507 | 84 | 65 | 2.6 | 0.0 | 0.00 | 0.00 | 0.00 | 66 | 1009.4 |
| 20260904203003 | 85 | 151 | 1.7 | 0.0 | 0.00 | 0.00 | 0.00 | 64 | 1009.5 |
| 20260904201504 | 84 | 121 | 2.6 | 0.0 | 0.00 | 0.00 | 0.00 | 64 | 1009.7 |
| 20260904200003 | 84 | 145 | 1.7 | 0.0 | 0.00 | 0.00 | 0.00 | 65 | 1009.6 |
| 20260904194612 | 84 | 157 | 2.6 | 0.0 | 0.00 | 0.00 | 0.00 | 66 | 1009.9 |
| 20260904191506 | 82 | 155 | 4.3 | 0.0 | 0.00 | 0.00 | 0.00 | 69 | 1010.3 |
| 20260904190002 | 83 | 174 | 3.5 | 0.0 | 0.00 | 0.00 | 0.00 | 64 | 1010.2 |
| 20260904184615 | 84 | 172 | 2.6 | 0.0 | 0.00 | 0.00 | 0.00 | 65 | 1010.3 |
| 20260904181525 | 84 | 175 | 4.3 | 0.0 | 0.00 | 0.00 | 0.00 | 65 | 1010.4 |
| 20260904180039 | 84 | 204 | 4.3 | 0.0 | 0.00 | 0.00 | 0.00 | 65 | 1010.5 |
| 20260904174521 | 84 | 215 | 3.5 | 0.0 | 0.00 | 0.00 | 0.00 | 64 | 1010.5 |
| 20260904173029 | 84 | 173 | 4.3 | 0.0 | 0.00 | 0.00 | 0.00 | 65 | 1010.9 |
| 20260904171539 | 84 | 167 | 4.3 | 0.0 | 0.00 | 0.00 | 0.00 | 65 | 1010.9 |
| 20260904170017 | 84 | 188 | 3.5 | 0.0 | 0.00 | 0.00 | 0.00 | 66 | 1011.0 |
| 20260904164517 | 84 | 140 | 2.6 | 0.0 | 0.00 | 0.00 | 0.00 | 67 | 1011.0 |
| 20260904163014 | 83 | 149 | 3.5 | 0.0 | 0.00 | 0.00 | 0.00 | 68 | 1011.0 |
| 20260904161513 | 82 | 184 | 5.2 | 0.0 | 0.00 | 0.00 | 0.00 | 70 | 1010.9 |
| 20260904160013 | 82 | 181 | 5.2 | 0.0 | 0.00 | 0.00 | 0.00 | 71 | 1010.7 |
| 20260904154522 | 81 | 102 | 3.5 | 0.0 | 0.00 | 0.00 | 0.00 | 71 | 1010.9 |
| 20260904153009 | 80 | 163 | 3.5 | 0.0 | 0.00 | 0.00 | 0.00 | 74 | 1010.7 |
| 20260904151510 | 81 | 192 | 4.3 | 0.0 | 0.00 | 0.00 | 0.00 | 72 | 1010.5 |
| 20260904150002 | 79 | 189 | 3.5 | 0.0 | 0.00 | 0.00 | 0.00 | 78 | 1010.7 |
| 20260904144501 | 78 | 179 | 5.2 | 0.0 | 0.00 | 0.00 | 0.00 | 80 | 1010.7 |
| 20260904143101 | 78 | 161 | 4.3 | 0.0 | 0.00 | 0.00 | 0.00 | 83 | 1010.6 |
| 20260904141559 | 77 | 153 | 4.3 | 0.0 | 0.00 | 0.00 | 0.00 | 84 | 1010.7 |
| 20260904140058 | 76 | 151 | 4.3 | 0.0 | 0.00 | 0.00 | 0.00 | 86 | 1010.6 |
| 20260904134602 | 75 | 181 | 5.2 | 0.0 | 0.00 | 0.00 | 0.00 | 88 | 1010.4 |
| 20260904133102 | 75 | 150 | 4.3 | 0.0 | 0.00 | 0.00 | 0.00 | 88 | 1010.2 |
| 20260904131556 | 75 | 154 | 5.2 | 0.0 | 0.00 | 0.00 | 0.00 | 89 | 1010.0 |
| 20260904130051 | 74 | 155 | 5.2 | 0.0 | 0.00 | 0.00 | 0.00 | 89 | 1009.8 |
| 20260904124551 | 74 | 165 | 4.3 | 0.0 | 0.00 | 0.00 | 0.00 | 90 | 1009.4 |
| 20260904123048 | 74 | 140 | 4.3 | 0.0 | 0.00 | 0.00 | 0.00 | 89 | 1009.2 |
| 20260904121547 | 74 | 168 | 3.5 | 0.0 | 0.00 | 0.00 | 0.00 | 89 | 1009.1 |
| 20260904120055 | 74 | 153 | 2.6 | 0.0 | 0.00 | 0.00 | 0.00 | 89 | 1009.0 |
| 20260904114548 | 74 | 159 | 2.6 | 0.0 | 0.00 | 0.00 | 0.00 | 88 | 1008.8 |
| 20260904113043 | 74 | 183 | 3.5 | 0.0 | 0.00 | 0.00 | 0.00 | 87 | 1008.5 |
| 20260904111540 | 74 | 196 | 5.2 | 0.0 | 0.00 | 0.00 | 0.00 | 87 | 1008.3 |
| 20260904110039 | 74 | 203 | 5.2 | 0.0 | 0.00 | 0.00 | 0.00 | 86 | 1008.3 |
| 20260904104602 | 74 | 180 | 4.3 | 0.0 | 0.00 | 0.00 | 0.00 | 86 | 1008.1 |
| 20260904103039 | 75 | 196 | 4.3 | 0.0 | 0.00 | 0.00 | 0.00 | 85 | 1008.2 |
| 20260904101541 | 75 | 173 | 6.1 | 0.0 | 0.00 | 0.00 | 0.00 | 85 | 1008.1 |
| 20260904100042 | 75 | 189 | 6.1 | 0.0 | 0.00 | 0.00 | 0.00 | 85 | 1008.1 |
| 20260904094549 | 75 | 186 | 6.1 | 0.0 | 0.00 | 0.00 | 0.00 | 86 | 1008.3 |
| 20260904093036 | 75 | 162 | 5.2 | 0.0 | 0.00 | 0.00 | 0.00 | 86 | 1008.3 |
| 20260904091535 | 75 | 184 | 6.1 | 0.0 | 0.00 | 0.00 | 0.00 | 86 | 1008.2 |
| 20260904090031 | 75 | 175 | 5.2 | 0.0 | 0.00 | 0.00 | 0.00 | 86 | 1008.2 |
| 20260904084531 | 75 | 161 | 4.3 | 0.0 | 0.00 | 0.00 | 0.00 | 86 | 1008.0 |
| 20260904083030 | 75 | 165 | 6.1 | 0.0 | 0.00 | 0.00 | 0.00 | 86 | 1008.1 |
| 20260904081528 | 75 | 163 | 4.3 | 0.0 | 0.00 | 0.00 | 0.00 | 86 | 1008.0 |
| 20260904080030 | 75 | 150 | 5.2 | 0.0 | 0.00 | 0.00 | 0.00 | 85 | 1008.2 |
| 20260904074526 | 75 | 171 | 5.2 | 0.0 | 0.00 | 0.00 | 0.00 | 84 | 1008.2 |
| 20260904073031 | 75 | 182 | 6.1 | 0.0 | 0.00 | 0.00 | 0.00 | 83 | 1008.3 |
| 20260904071521 | 75 | 169 | 6.1 | 0.0 | 0.00 | 0.00 | 0.00 | 83 | 1008.3 |
| 20260904070035 | 76 | 186 | 7.0 | 0.0 | 0.00 | 0.00 | 0.00 | 82 | 1008.4 |
| 20260904064516 | 76 | 173 | 6.1 | 0.0 | 0.00 | 0.00 | 0.00 | 82 | 1008.7 |
| 20260904063015 | 76 | 174 | 7.0 | 0.0 | 0.00 | 0.00 | 0.00 | 81 | 1008.7 |
| 20260904061513 | 76 | 170 | 7.0 | 0.0 | 0.00 | 0.00 | 0.00 | 81 | 1008.8 |
| 20260904060009 | 77 | 167 | 6.1 | 0.0 | 0.00 | 0.00 | 0.00 | 80 | 1008.9 |
| 20260904054506 | 77 | 148 | 7.0 | 0.0 | 0.00 | 0.00 | 0.00 | 79 | 1008.8 |
| 20260904053006 | 77 | 139 | 7.8 | 0.0 | 0.00 | 0.00 | 0.00 | 79 | 1008.6 |
| 20260904051611 | 78 | 176 | 8.7 | 0.0 | 0.00 | 0.00 | 0.00 | 77 | 1008.4 |
| 20260904050056 | 79 | 165 | 6.1 | 0.0 | 0.00 | 0.00 | 0.00 | 73 | 1008.4 |
| 20260904044604 | 79 | 153 | 5.2 | 0.0 | 0.00 | 0.00 | 0.00 | 68 | 1008.8 |
| 20260904043102 | 80 | 159 | 4.3 | 0.0 | 0.00 | 0.00 | 0.00 | 67 | 1008.6 |